レモン彗星

C/2015 XY1 ( Lemmon )

English version
Home page
Updated on November 23, 2017

---------------------------------------------------------------------

・ プロフィール

発見日 2015年12月4日
発見光度 20.4等
発見者 J. A. Johnson (Mount Lemmon)

・ 写真集

・ 軌道要素

Epoch 2018 May 2.0 TT = JDT 2458240.5
T 2018 Apr. 29.91514 TT                                 MPCW
q   7.9279564            (2000.0)            P               Q
z  -0.0005212      Peri.  196.35185     +0.04278451     +0.86104915
 +/-0.0000011      Node   281.61660     +0.96478324     +0.09614930
e   1.0041317      Incl.  148.84769     +0.25954340     -0.49934925
From 258 observations 2015 Dec. 4-2017 Oct. 26, mean residual 0".4.

・ 光度変化

        m1 = 4.5 + 5 logΔ + 10.0 log r

---------------------------------------------------------------------

軌道要素はM.P.E.C. 2017-V13に掲載されたものです。
光度グラフはComet for Windowsで作成したものです。

---------------------------------------------------------------------

Copyright(C) Seiichi Yoshida (comet@aerith.net). All rights reserved.